Flag for United Kingdom Weather past 2 weeks in Coventry, England, United Kingdom

Now
63 °F

Passing clouds.


Feels Like: 63 °F
Forecast: 51 / 69 °F
Wind: 5 mph from West

Location: Birmingham / Airport

Current Time: Jul 4, 2015 at 11:45:33 PM

Latest Report: Jul 4, 2015 at 11:20 PM


Visibility: N/A

Pressure: 30.12 "Hg

Humidity: 59%

Dew point: 48 °F

Location of CoventryLocation

Historic Weather in Coventry — Graph

°F

Coventry temperature yesterday

Maximum temperature yesterday: 77 °F (at 4:20 PM)
Minimum temperature yesterday: 48 °F (at 4:20 AM)
Average temperature yesterday: 64 °F

Past Weeks' High & Low Weather Summary

 TemperatureHumidityPressure
High90 °F (Jul 1, 3:50 PM)100% (Jun 20, 7:20 AM)30.30 "Hg (Jun 20, 7:20 AM)
Low48 °F (Jul 3, 4:20 AM)35% (Jun 30, 2:50 PM)29.80 "Hg (Jun 22, 9:50 AM)
Average64 °F69%30.05 "Hg
* Reported Jun 19 10:20 PM — Jul 4 10:20 PM, Coventry, Weather by CustomWeather, © 2015

Note: Actual official high and low records may vary slightly from our data, if they occured in-between our weather recording intervals... More about our weather records

Advertising

Coventry weather history for previous 24 hours

 ConditionsComfort  
Time TempWeatherWind HumidityBarometerVisibility
10:20 PM
Sat, Jul 4
66 °FPassing clouds.6 mph56%30.09 "HgN/A
9:50 PM66 °FSunny.6 mph52%30.09 "Hg10 mi
9:20 PM68 °FPassing clouds.9 mph49%30.09 "HgN/A
8:50 PM68 °FPassing clouds.8 mph53%30.09 "HgN/A
8:20 PM70 °FPassing clouds.8 mph46%30.09 "HgN/A
7:50 PM72 °FSunny.8 mph44%30.09 "Hg10 mi
7:20 PM72 °FPassing clouds.8 mph44%30.09 "HgN/A
6:50 PM72 °FPassing clouds.10 mph44%30.09 "HgN/A
6:20 PM72 °FPassing clouds.9 mph44%30.09 "HgN/A
5:50 PM73 °FPassing clouds.12 mph44%30.07 "HgN/A
5:20 PM73 °FPassing clouds.12 mph47%30.07 "HgN/A
4:50 PM75 °FPassing clouds.10 mph47%30.07 "HgN/A
4:20 PM73 °FPassing clouds.9 mph50%30.07 "HgN/A
3:50 PM75 °FScattered clouds.14 mph47%30.07 "HgN/A
3:20 PM75 °FScattered clouds.9 mph50%30.07 "HgN/A
2:50 PM75 °FScattered clouds.13 mph54%30.04 "HgN/A
2:20 PM75 °FScattered clouds.13 mph50%30.04 "HgN/A
1:50 PM75 °FScattered clouds.13 mph54%30.04 "HgN/A
1:20 PM75 °FScattered clouds.12 mph50%30.04 "HgN/A
12:50 PM73 °FScattered clouds.12 mph57%30.01 "HgN/A
12:20 PM73 °FScattered clouds.10 mph57%30.01 "HgN/A
11:50 AM73 °FScattered clouds.10 mph61%30.01 "HgN/A
11:20 AM72 °FScattered clouds.12 mph69%30.01 "HgN/A
10:50 AM72 °FScattered clouds.12 mph69%30.01 "HgN/A
10:20 AM72 °FScattered clouds.12 mph69%30.01 "HgN/A
9:50 AM72 °FScattered clouds.10 mph69%29.98 "HgN/A
9:20 AM70 °FScattered clouds.8 mph83%29.98 "HgN/A
8:50 AM66 °FBroken clouds.8 mph94%29.98 "Hg3 mi
8:20 AM66 °FFog.7 mph94%29.98 "Hg2 mi
7:50 AM64 °FFog.7 mph100%29.98 "Hg2 mi
7:20 AM64 °FFog.8 mph94%29.98 "Hg1 mi
6:50 AM63 °FFog.8 mph100%29.95 "Hg2 mi
6:20 AM63 °FFog.7 mph100%29.98 "Hg2 mi
5:50 AM63 °FFog.6 mph94%29.95 "Hg2 mi
5:20 AM63 °FFog.6 mph94%29.98 "Hg3 mi
4:50 AM63 °FMostly cloudy.5 mph94%29.95 "Hg4 mi
4:20 AM63 °FMostly cloudy.6 mph94%29.95 "HgN/A
3:50 AM63 °FPassing clouds.9 mph94%29.98 "HgN/A
3:20 AM61 °FPartly cloudy.6 mph94%29.98 "HgN/A
2:50 AM61 °FLight rain. Passing clouds.10 mph94%29.95 "HgN/A
2:20 AM59 °FThundershowers. Partly cloudy.8 mph100%30.01 "Hg4 mi
1:50 AM63 °FThunderstorms. Passing clouds.6 mph83%30.01 "HgN/A
1:20 AM63 °FClear.9 mph77%30.01 "Hg10 mi
12:50 AM63 °FClear.6 mph77%30.04 "Hg10 mi
12:20 AM63 °FPassing clouds.6 mph77%30.04 "HgN/A
11:50 PM
Fri, Jul 3
63 °FPassing clouds.8 mph77%30.07 "HgN/A
11:20 PM64 °FClear.9 mph73%30.07 "Hg10 mi
Weather by CustomWeather, © 2015

See weather overviewHow to use our weather pages